PGT418C LTFJ-LTCB

Flight info

Callsign PGT418C
Flight time 1h 14m
Altitude 37000
Route VICEN1J VICEN UT380 ASMAP UL333 LATGA UT363 ESB UT364 ILHAN UW71 CRM UM11 TERME TERME1F
Aircraft A21N/M-SDE2E3FGHIRWXY/LB1

Departure

Time 2026-05-04 16:18
Airport Istanbul Sabiha Gökçen International Airport (LTFJ)

Arrival

Time 2026-05-04 17:32
Airport Ordu–Giresun Airport (LTCB)
Time Latitude Longitude Altitude Speed Heading
2026-05-04 15:26 40.90858 29.31909 316 ft 0 kts 244°
2026-05-04 16:04 40.90859 29.31911 316 ft 2 kts 244°
2026-05-04 16:05 40.90872 29.31941 316 ft 4 kts 229°
2026-05-04 16:05 40.90892 29.31960 316 ft 4 kts 190°
2026-05-04 16:05 40.90908 29.31959 316 ft 3 kts 154°
2026-05-04 16:09 40.90893 29.31969 316 ft 4 kts 154°
2026-05-04 16:09 40.90812 29.32070 316 ft 11 kts 146°
2026-05-04 16:10 40.90723 29.32179 316 ft 11 kts 74°
2026-05-04 16:11 40.90600 29.32331 316 ft 10 kts 194°
2026-05-04 16:11 40.90558 29.32262 314 ft 11 kts 245°
2026-05-04 16:12 40.90429 29.31909 315 ft 17 kts 244°
2026-05-04 16:12 40.90253 29.31429 316 ft 16 kts 244°
2026-05-04 16:13 40.90142 29.31130 315 ft 20 kts 244°
2026-05-04 16:13 40.90011 29.30773 315 ft 23 kts 244°
2026-05-04 16:14 40.89882 29.30423 316 ft 21 kts 244°
2026-05-04 16:14 40.89749 29.30062 313 ft 20 kts 244°
2026-05-04 16:15 40.89551 29.29523 309 ft 24 kts 244°
2026-05-04 16:16 40.89441 29.29264 309 ft 10 kts 212°
2026-05-04 16:16 40.89292 29.29392 309 ft 13 kts 73°
2026-05-04 16:17 40.89376 29.29625 311 ft 48 kts 64°
2026-05-04 16:18 40.90529 29.32759 773 ft 161 kts 64°
2026-05-04 16:18 40.91017 29.34115 1318 ft 165 kts 64°
2026-05-04 16:19 40.92657 29.38740 2885 ft 212 kts 67°
2026-05-04 16:19 40.92329 29.42958 4090 ft 264 kts 121°
2026-05-04 16:20 40.87381 29.46832 6695 ft 288 kts 156°
2026-05-04 16:20 40.83685 29.49081 8499 ft 298 kts 155°
2026-05-04 16:21 40.77992 29.52948 10919 ft 321 kts 137°
2026-05-04 16:22 40.75760 29.58194 11691 ft 349 kts 99°
2026-05-04 16:22 40.73962 29.67757 14038 ft 364 kts 99°
2026-05-04 16:23 40.73290 29.77675 16291 ft 369 kts 86°
2026-05-04 16:24 40.73068 29.91495 19012 ft 382 kts 86°
2026-05-04 16:25 40.72933 29.98509 20252 ft 389 kts 86°
2026-05-04 16:26 40.71193 30.12828 22596 ft 411 kts 104°
2026-05-04 16:26 40.68296 30.23605 24223 ft 420 kts 102°
2026-05-04 16:27 40.66972 30.31067 25265 ft 420 kts 96°
2026-05-04 16:28 40.65102 30.42438 26776 ft 427 kts 96°
2026-05-04 16:28 40.63142 30.53966 28096 ft 433 kts 96°
2026-05-04 16:29 40.60463 30.69585 29664 ft 441 kts 96°
2026-05-04 16:30 40.58425 30.81374 30901 ft 439 kts 97°
2026-05-04 16:31 40.57062 30.89229 31583 ft 441 kts 97°
2026-05-04 16:31 40.55000 31.01025 32593 ft 444 kts 98°
2026-05-04 16:32 40.52912 31.12918 33446 ft 446 kts 98°
2026-05-04 16:33 40.51503 31.20878 34038 ft 447 kts 99°
2026-05-04 16:33 40.50089 31.28841 34598 ft 448 kts 99°
2026-05-04 16:34 40.48665 31.36822 35096 ft 449 kts 100°
2026-05-04 16:34 40.47949 31.40823 35337 ft 450 kts 100°
2026-05-04 16:35 40.45632 31.52797 35985 ft 452 kts 103°
2026-05-04 16:35 40.43018 31.64726 36533 ft 455 kts 104°
2026-05-04 16:36 40.42142 31.68716 36722 ft 455 kts 104°
2026-05-04 16:36 40.40389 31.76678 36970 ft 452 kts 104°
2026-05-04 16:37 40.37777 31.88484 36912 ft 448 kts 104°
2026-05-04 16:38 40.34273 32.04170 36893 ft 448 kts 105°
2026-05-04 16:39 40.30247 32.23879 36875 ft 448 kts 103°
2026-05-04 16:40 40.27116 32.39657 36868 ft 447 kts 103°
2026-05-04 16:41 40.23185 32.59290 36856 ft 447 kts 103°
2026-05-04 16:43 40.19220 32.78909 36850 ft 446 kts 103°
2026-05-04 16:43 40.16822 32.90654 36849 ft 446 kts 104°
2026-05-04 16:44 40.16862 33.06403 36848 ft 442 kts 65°
2026-05-04 16:45 40.19846 33.13415 36854 ft 441 kts 59°
2026-05-04 16:46 40.27023 33.29704 36850 ft 443 kts 58°
2026-05-04 16:47 40.33203 33.43616 36853 ft 444 kts 63°
2026-05-04 16:48 40.39070 33.57883 36850 ft 445 kts 60°
2026-05-04 16:49 40.44864 33.72226 36843 ft 446 kts 70°
2026-05-04 16:50 40.48716 33.87704 36840 ft 446 kts 72°
2026-05-04 16:51 40.51855 33.99202 36837 ft 446 kts 68°
2026-05-04 16:52 40.56527 34.14320 36839 ft 447 kts 68°
2026-05-04 16:53 40.60014 34.25692 36829 ft 446 kts 68°
2026-05-04 16:54 40.64634 34.40831 36816 ft 446 kts 69°
2026-05-04 16:55 40.71504 34.63510 36812 ft 445 kts 69°
2026-05-04 16:56 40.77175 34.82475 36801 ft 445 kts 69°
2026-05-04 16:57 40.80521 34.93888 36803 ft 444 kts 70°
2026-05-04 16:58 40.84967 35.09104 36791 ft 444 kts 70°
2026-05-04 17:00 40.91617 35.31995 36790 ft 445 kts 70°
2026-05-04 17:01 40.97118 35.51114 36790 ft 445 kts 70°
2026-05-04 17:02 41.01505 35.66425 36791 ft 445 kts 70°
2026-05-04 17:03 41.04848 35.77891 36799 ft 444 kts 70°
2026-05-04 17:03 41.08202 35.89296 36805 ft 445 kts 70°
2026-05-04 17:04 41.12565 36.04628 36826 ft 445 kts 71°
2026-05-04 17:05 41.16890 36.20083 36847 ft 447 kts 71°
2026-05-04 17:06 41.20112 36.31656 36226 ft 444 kts 71°
2026-05-04 17:07 41.22269 36.39434 34498 ft 450 kts 71°
2026-05-04 17:07 41.22983 36.42014 34039 ft 449 kts 71°
2026-05-04 17:07 41.24422 36.47219 33117 ft 449 kts 71°
2026-05-04 17:07 41.25490 36.51112 32441 ft 448 kts 73°
2026-05-04 17:08 41.26228 36.55102 31803 ft 443 kts 84°
2026-05-04 17:08 41.25995 36.63180 30614 ft 435 kts 97°
2026-05-04 17:08 41.25671 36.67163 30054 ft 432 kts 98°
2026-05-04 17:09 41.25357 36.71118 29483 ft 430 kts 98°
2026-05-04 17:09 41.25054 36.75062 28879 ft 428 kts 97°
2026-05-04 17:09 41.24758 36.78988 28304 ft 425 kts 97°
2026-05-04 17:10 41.24179 36.86712 27156 ft 420 kts 98°
2026-05-04 17:10 41.23307 36.98204 25426 ft 413 kts 98°
2026-05-04 17:11 41.23018 37.01988 24878 ft 410 kts 98°
2026-05-04 17:11 41.22729 37.05746 24296 ft 409 kts 98°
2026-05-04 17:11 41.22149 37.13224 23150 ft 405 kts 98°
2026-05-04 17:12 41.21860 37.16932 22595 ft 403 kts 98°
2026-05-04 17:12 41.20979 37.24209 21441 ft 396 kts 111°
2026-05-04 17:13 41.18064 37.34295 19801 ft 383 kts 113°
2026-05-04 17:14 41.15278 37.43956 18355 ft 364 kts 113°
2026-05-04 17:14 41.14383 37.47065 17910 ft 358 kts 113°
2026-05-04 17:14 41.12617 37.53197 17055 ft 355 kts 112°
2026-05-04 17:15 41.11733 37.56254 16620 ft 355 kts 112°
2026-05-04 17:15 41.09966 37.62367 15745 ft 355 kts 113°
2026-05-04 17:16 41.08202 37.68448 14936 ft 352 kts 113°
2026-05-04 17:16 41.05577 37.77478 13670 ft 349 kts 113°
2026-05-04 17:17 41.04711 37.80444 13319 ft 341 kts 113°
2026-05-04 17:17 41.02177 37.89105 12253 ft 333 kts 114°
2026-05-04 17:18 41.01339 37.91963 11856 ft 333 kts 114°
2026-05-04 17:18 40.99667 37.97643 11110 ft 330 kts 114°
2026-05-04 17:19 40.98047 38.03157 10591 ft 310 kts 113°
2026-05-04 17:19 40.96552 38.08285 10252 ft 290 kts 110°
2026-05-04 17:20 40.95678 38.13468 9661 ft 288 kts 103°
2026-05-04 17:20 40.94908 38.18667 8993 ft 287 kts 103°
2026-05-04 17:20 40.94519 38.21256 8668 ft 287 kts 103°
2026-05-04 17:21 40.93737 38.26429 8037 ft 287 kts 103°
2026-05-04 17:21 40.92948 38.31598 7445 ft 286 kts 102°
2026-05-04 17:22 40.92555 38.34166 7124 ft 283 kts 102°
2026-05-04 17:22 40.92167 38.36702 6799 ft 279 kts 102°
2026-05-04 17:23 40.94046 38.43668 5846 ft 279 kts 56°
2026-05-04 17:23 40.95129 38.45754 5560 ft 269 kts 57°
2026-05-04 17:23 40.96364 38.50076 5044 ft 246 kts 99°
2026-05-04 17:24 40.95728 38.52084 4900 ft 233 kts 129°
2026-05-04 17:24 40.91515 38.53107 4017 ft 221 kts 211°
2026-05-04 17:25 40.90422 38.51722 3846 ft 223 kts 237°
2026-05-04 17:25 40.90037 38.47763 3848 ft 226 kts 283°
2026-05-04 17:26 40.90875 38.43756 3860 ft 226 kts 284°
2026-05-04 17:26 40.91976 38.37966 3849 ft 207 kts 282°
2026-05-04 17:27 40.92633 38.34236 3862 ft 208 kts 281°
2026-05-04 17:27 40.93197 38.30556 3309 ft 204 kts 281°
2026-05-04 17:28 40.93747 38.26979 2796 ft 188 kts 281°
2026-05-04 17:29 40.94457 38.22395 2181 ft 142 kts 281°
2026-05-04 17:29 40.95051 38.18703 1369 ft 135 kts 282°
2026-05-04 17:30 40.95643 38.15087 815 ft 133 kts 282°
2026-05-04 17:31 40.96032 38.12703 434 ft 132 kts 283°
2026-05-04 17:31 40.96590 38.09214 31 ft 117 kts 282°
2026-05-04 17:32 40.96816 38.07792 29 ft 32 kts 282°
2026-05-04 17:33 40.96925 38.07104 27 ft 21 kts 282°
2026-05-04 17:33 40.96919 38.06976 27 ft 12 kts 242°
2026-05-04 17:34 40.96944 38.06988 27 ft 9 kts 104°
2026-05-04 17:34 40.96928 38.07083 27 ft 12 kts 102°
2026-05-04 17:35 40.96853 38.07550 29 ft 21 kts 102°
2026-05-04 17:35 40.96794 38.07807 29 ft 10 kts 162°
2026-05-04 17:35 40.96732 38.07805 26 ft 7 kts 192°
2026-05-04 17:36 40.96677 38.07789 24 ft 9 kts 190°
2026-05-04 17:36 40.96610 38.07773 23 ft 11 kts 190°
2026-05-04 17:36 40.96565 38.07816 24 ft 8 kts 101°
2026-05-04 17:36 40.96553 38.07901 23 ft 11 kts 101°
2026-05-04 17:37 40.96537 38.08008 24 ft 12 kts 101°
2026-05-04 17:37 40.96523 38.08095 23 ft 7 kts 107°
2026-05-04 17:37 40.96485 38.08118 23 ft 5 kts 185°
2026-05-04 17:37 40.96468 38.08113 24 ft 3 kts 193°
2026-05-04 17:38 40.96458 38.08110 24 ft 1 kts 192°
2026-05-04 17:38 40.96453 38.08109 23 ft 0 kts 192°